Temperature
8 8 8 8 8 8 8 9 9 9 8 8 9 8 8 8 8 8 8 7 7 7 7 7 7 7 6 6 6 6 5 5 4 5 5 5 5 5 5 5 5 5 5
8 8 8 8 8 8 8 8 8 8 8 8 8 8 8 8 7 7 7 7 7 7 6 6 6 6 6 6 5 5 5 5 4 4 4 4 4 4 4 4 4 4 4
7 7 7 7 7 7 7 7 7 7 7 7 7 7 7 7 7 6 6 6 6 6 6 5 5 5 5 5 5 5 4 4 4 3 4 4 4 3 3 4 4 3 3
6 7 7 7 7 7 7 7 7 6 6 6 6 6 6 6 6 6 6 6 5 5 5 5 5 5 4 4 4 4 4 3 3 3 3 3 3 3 3 3 3 3 3
6 6 6 6 6 6 6 6 6 6 6 6 6 6 5 5 5 5 5 5 5 5 5 4 4 4 4 4 4 3 3 3 2 2 2 2 2 2 2 2 2 2 2
5 5 5 5 5 5 5 5 5 5 5 5 5 5 5 5 5 4 4 4 4 4 4 4 4 4 3 3 3 3 3 2 2 2 2 2 2 2 1 1 1 1 1
4 4 5 5 5 5 5 5 4 4 4 4 4 4 4 4 4 4 4 4 3 3 3 3 3 3 3 3 3 2 2 2 2 2 1 1 1 1 1 1 0 0 0
4 4 4 4 4 4 4 4 4 3 3 3 3 3 3 3 3 3 3 3 3 3 2 2 2 2 2 2 2 2 2 2 1 1 1 1 1 0 0 -0 -0 -0 -0
3 3 3 3 3 3 3 3 3 3 3 3 3 3 3 3 2 2 2 2 2 2 2 2 2 2 2 1 1 1 1 1 1 1 1 0 0 0 -0 -1 -1 -1 -1
2 2 2 2 2 2 2 2 2 2 2 2 2 2 2 2 2 2 2 1 1 1 1 1 1 1 1 1 1 1 1 0 0 0 0 0 -0 -0 -1 -1 -1 -2 -2
1 1 1 1 1 1 1 1 1 1 1 1 1 1 1 1 1 1 1 1 1 1 1 1 1 1 0 0 0 0 -0 -0 -0 -0 -0 -1 -1 -1 -1 -1 -2 -2 -2
1 1 1 1 1 1 1 1 1 0 0 0 0 0 0 0 0 0 0 0 0 0 -0 -0 -0 -0 -0 -0 -0 -0 -1 -1 -1 -1 -1 -1 -1 -1 -2 -2 -2 -2 -2
-0 -0 -0 -0 -0 -0 -0 -0 -0 -0 -0 -0 -0 -0 -0 -0 -0 -0 -0 -0 -1 -1 -1 -1 -1 -1 -1 -1 -1 -1 -1 -1 -2 -2 -2 -2 -2 -2 -2 -2 -2 -3 -3
-1 -1 -1 -1 -1 -1 -1 -1 -1 -1 -1 -1 -1 -1 -1 -1 -1 -1 -1 -1 -1 -1 -1 -1 -1 -1 -2 -2 -2 -2 -2 -2 -2 -2 -3 -3 -3 -3 -3 -3 -3 -3 -3
-2 -2 -2 -2 -2 -2 -1 -1 -1 -1 -1 -1 -1 -1 -1 -1 -2 -2 -2 -2 -2 -2 -2 -2 -2 -2 -2 -2 -2 -2 -3 -3 -3 -3 -3 -3 -3 -3 -4 -4 -4 -4 -4
-3 -2 -2 -2 -2 -2 -2 -2 -2 -2 -2 -2 -2 -2 -2 -2 -2 -2 -3 -3 -3 -3 -3 -3 -3 -3 -3 -3 -3 -3 -3 -3 -3 -4 -4 -4 -4 -4 -4 -4 -4 -5 -5
-3 -3 -3 -3 -3 -3 -2 -2 -3 -3 -3 -3 -3 -3 -3 -3 -3 -3 -3 -3 -3 -3 -4 -4 -4 -4 -4 -4 -4 -4 -4 -4 -4 -4 -5 -5 -5 -5 -5 -5 -5 -5 -5
-4 -3 -3 -3 -3 -3 -3 -3 -3 -3 -3 -4 -4 -4 -4 -4 -4 -4 -4 -4 -4 -4 -4 -4 -4 -4 -4 -5 -5 -5 -5 -5 -5 -5 -5 -5 -5 -5 -5 -5 -5 -6 -6
-4 -4 -4 -4 -4 -4 -4 -4 -4 -4 -4 -4 -4 -4 -4 -4 -4 -4 -4 -5 -5 -5 -5 -5 -5 -5 -5 -5 -5 -5 -5 -5 -5 -6 -6 -6 -6 -6 -6 -6 -6 -6 -6
-4 -4 -4 -4 -4 -4 -4 -4 -4 -5 -5 -5 -5 -5 -5 -5 -5 -5 -5 -5 -5 -5 -5 -5 -5 -5 -6 -6 -6 -6 -6 -6 -6 -6 -6 -6 -6 -6 -6 -6 -6 -7 -7
-5 -5 -5 -5 -5 -5 -5 -5 -5 -5 -5 -5 -5 -5 -6 -6 -6 -6 -6 -6 -5 -6 -6 -6 -6 -6 -6 -6 -6 -6 -6 -6 -7 -7 -7 -7 -7 -7 -7 -7 -7 -7 -7
-6 -6 -6 -6 -6 -6 -6 -6 -6 -6 -6 -6 -6 -6 -6 -6 -6 -6 -6 -6 -6 -6 -6 -6 -6 -7 -7 -7 -7 -7 -7 -7 -7 -7 -7 -7 -7 -7 -7 -7 -7 -7 -7
-6 -6 -6 -6 -6 -6 -6 -6 -6 -6 -6 -6 -6 -7 -7 -7 -7 -7 -7 -7 -7 -7 -7 -7 -7 -7 -7 -7 -7 -7 -7 -7 -7 -7 -7 -8 -8 -7 -7 -7 -7 -8 -8
-6 -6 -6 -7 -7 -7 -7 -7 -7 -7 -7 -7 -7 -7 -7 -7 -7 -7 -7 -7 -7 -7 -7 -7 -7 -7 -7 -7 -7 -7 -7 -7 -8 -8 -8 -8 -8 -8 -8 -8 -8 -8 -8
-7 -7 -7 -7 -7 -7 -7 -7 -7 -7 -7 -7 -8 -8 -8 -8 -8 -8 -8 -8 -8 -8 -8 -8 -8 -8 -8 -8 -7 -7 -7 -8 -8 -8 -8 -8 -8 -8 -8 -8 -8 -8 -8
-7 -7 -7 -7 -7 -8 -8 -8 -8 -8 -8 -8 -8 -8 -8 -8 -8 -8 -8 -8 -8 -8 -8 -8 -8 -8 -8 -8 -8 -8 -8 -8 -8 -8 -8 -8 -8 -8 -8 -8 -8 -8 -8
Wind_Speed
5 5 4 5 4 4 5 6 6 6 6 7 7 6 6 5 5 5 5 5 5 4 4 4 4 4 4 3 4 4 4 5 7 7 6 6 7 7 7 8 8 8 8
3 4 4 4 4 4 4 5 6 6 6 6 6 6 6 6 5 5 5 5 5 4 4 4 4 3 4 4 4 4 4 5 6 8 7 6 7 7 7 7 7 8 8
2 4 4 4 4 5 5 4 4 5 6 6 6 6 6 5 5 5 5 4 4 4 4 4 4 4 4 4 4 4 4 4 5 6 6 6 5 5 7 7 7 7 8
1 3 4 4 4 4 5 5 4 5 5 6 6 5 5 5 5 4 4 3 3 3 3 3 4 4 4 4 4 4 4 4 4 5 6 5 5 5 5 6 6 6 7
1 2 2 3 3 4 4 4 4 4 4 5 5 5 5 5 4 4 4 4 3 3 3 4 4 3 4 4 4 4 4 4 4 5 5 5 5 4 5 5 7 7 7
1 1 2 3 3 3 3 4 4 4 4 4 5 5 5 3 5 5 4 4 4 3 3 3 3 4 4 4 3 4 4 5 5 5 6 6 7 6 6 5 6 6 5
1 1 2 3 3 3 3 3 4 4 4 4 4 4 4 4 6 5 4 3 3 3 3 3 3 2 3 3 3 3 4 5 6 6 7 7 7 6 6 7 6 7 7
1 2 2 3 3 3 3 3 3 3 3 4 4 4 4 4 6 5 4 3 2 3 3 4 4 3 3 3 3 3 4 4 5 5 6 6 6 6 7 7 7 7 7
1 1 2 2 3 3 3 3 3 3 3 3 3 3 4 4 6 5 3 2 2 2 3 3 3 3 3 3 4 4 5 4 3 4 6 7 7 7 6 5 5 5 6
1 1 1 2 3 3 2 2 2 3 3 3 3 3 3 4 5 4 3 2 2 2 2 2 3 3 3 4 4 4 5 5 4 4 4 5 5 5 5 4 4 5 5
2 1 1 1 2 2 2 2 3 3 3 3 3 2 2 3 4 4 3 2 2 2 2 2 2 3 4 5 5 5 5 5 5 4 4 4 4 4 4 4 5 4 5
2 2 2 1 1 2 3 2 3 4 4 3 3 2 1 2 2 2 2 2 2 3 3 2 2 3 4 5 5 4 5 5 4 3 3 4 4 4 4 5 5 5 6
2 2 2 2 2 2 2 3 3 3 3 2 2 2 1 1 1 2 2 2 2 2 2 3 4 4 4 4 3 4 4 3 3 3 4 4 4 4 4 4 5 5 5
2 2 2 2 2 2 2 1 2 2 2 2 2 2 2 1 1 1 1 1 1 1 2 1 2 2 2 2 3 3 2 3 3 3 3 3 3 3 4 4 4 4 4
2 1 1 1 1 1 1 1 0 1 2 2 2 2 2 3 3 3 2 2 2 2 1 2 2 2 2 2 2 2 2 2 3 2 3 3 3 3 3 3 4 4 4
1 1 0 1 1 1 1 1 2 1 1 0 1 2 2 3 3 3 3 3 3 3 2 2 2 2 2 2 2 2 2 2 3 3 3 3 3 3 3 3 3 4 4
0 0 0 0 1 1 1 1 1 2 2 1 1 1 1 2 2 3 3 3 3 3 2 2 3 3 2 2 2 3 3 3 3 3 3 3 3 3 3 3 3 4 4
1 1 0 0 1 1 1 1 1 1 0 0 0 0 1 1 1 2 2 1 2 2 2 2 2 2 2 2 2 2 2 3 3 3 3 3 3 3 3 3 3 4 4
1 0 0 0 0 1 1 1 1 1 1 1 1 0 1 1 1 1 1 1 1 1 1 2 2 2 2 2 2 2 2 3 3 3 3 3 3 3 3 4 4 5 5
0 1 0 0 0 1 1 0 0 1 1 1 1 1 1 1 1 1 1 1 1 2 2 2 2 2 2 2 2 2 3 3 3 3 3 3 3 3 4 4 4 4 4
0 0 0 0 0 0 1 1 1 1 1 1 1 2 2 1 1 1 1 1 2 2 2 2 2 2 3 3 3 3 3 3 3 3 3 3 3 4 4 4 4 4 4
0 0 0 0 1 1 1 1 1 1 1 1 1 1 1 1 1 1 2 2 2 2 2 2 3 3 3 3 3 3 3 3 3 3 3 3 4 4 4 4 4 4 4
1 1 1 1 1 1 1 1 1 1 1 1 1 1 1 1 1 2 2 2 2 2 2 3 3 3 3 3 4 4 4 4 4 4 4 4 4 4 4 4 4 5 4
1 1 1 1 1 1 1 1 1 1 1 1 1 1 1 2 2 2 3 3 3 3 3 3 3 4 5 5 4 5 5 5 5 5 5 5 4 4 4 4 4 5 4
1 1 1 1 1 1 1 1 0 1 1 1 1 1 2 2 2 2 3 3 3 3 4 4 4 4 5 6 6 6 6 7 7 6 5 5 5 4 4 4 4 4 4
1 1 1 1 1 1 1 1 1 1 1 1 1 2 2 2 2 3 3 3 3 3 4 4 4 5 6 6 7 7 7 7 7 7 5 4 4 4 4 4 4 4 4
Wind_Direction
204 197 188 184 181 176 179 187 182 177 178 178 177 180 184 187 188 189 191 193 201 206 210 216 223 224 228 233 235 238 246 252 262 274 280 289 291 296 304 303 301 300 294
196 190 180 172 171 172 176 182 180 179 183 184 179 181 183 187 189 189 194 197 198 207 215 220 230 230 233 235 236 241 250 256 262 273 285 291 292 297 302 304 307 302 297
192 178 170 168 171 174 172 172 173 175 179 181 182 183 184 186 188 193 199 204 206 213 218 222 230 233 239 240 244 250 256 261 264 271 283 294 294 303 306 305 305 305 300
175 165 165 168 173 170 167 168 168 170 178 181 180 183 183 181 184 187 193 201 211 217 219 223 229 233 240 243 248 255 262 269 272 272 280 291 296 305 306 306 306 307 304
127 135 161 164 161 154 153 158 158 163 173 175 174 180 182 184 186 182 183 187 195 210 218 223 231 236 248 253 255 260 263 267 273 276 279 290 292 302 300 304 300 306 301
98 119 138 137 134 140 148 149 148 153 159 164 170 176 178 177 162 168 180 186 192 206 220 229 232 232 235 248 267 278 277 272 272 273 277 281 289 296 302 302 303 307 301
76 110 124 125 126 130 136 140 147 152 152 156 162 162 162 155 158 166 174 193 201 207 217 227 234 238 248 253 261 268 271 272 271 272 275 280 289 295 299 297 294 293 292
99 121 124 124 122 123 133 141 146 150 152 154 158 159 155 154 153 158 169 191 203 215 226 230 233 239 244 256 268 275 280 281 278 275 277 283 289 295 287 284 289 291 294
77 101 115 127 129 132 138 149 152 148 145 146 151 154 153 154 150 151 154 180 200 216 229 237 241 248 244 258 264 267 277 283 281 273 281 287 294 297 298 295 296 295 297
18 61 98 124 133 139 148 150 146 141 141 140 141 149 153 158 156 160 167 187 198 219 233 241 246 253 262 271 264 266 272 281 287 292 292 292 292 294 292 285 286 289 298
21 54 63 92 122 137 141 141 136 133 132 132 133 138 148 156 162 170 186 206 213 234 245 253 258 259 277 282 279 271 272 281 285 286 291 296 301 302 301 297 291 284 283
38 58 66 77 98 121 132 134 139 141 140 138 136 133 139 155 171 189 211 236 242 244 254 259 265 276 290 292 288 282 285 288 280 283 287 293 302 308 312 311 306 298 289
49 60 72 80 88 105 122 137 145 150 150 151 155 166 180 195 194 198 215 239 255 262 263 266 276 284 295 295 291 292 294 284 278 280 285 294 304 308 312 312 316 315 313
56 55 65 78 78 84 101 130 155 162 163 167 179 192 207 219 226 231 242 259 262 263 271 277 298 303 301 301 305 306 294 281 280 282 294 301 308 307 310 316 316 317 314
51 57 69 83 94 88 83 80 163 205 197 196 206 210 213 230 243 257 268 271 266 253 272 280 277 278 281 293 304 308 306 297 294 293 292 297 304 307 312 318 314 313 311
51 51 73 115 118 125 113 64 45 54 58 354 261 252 249 248 258 263 265 268 262 242 252 249 254 257 262 274 286 297 304 305 307 304 298 297 300 303 308 314 315 315 316
10 354 76 137 151 160 164 151 106 68 84 76 78 315 290 266 264 268 264 260 248 234 235 236 245 253 263 274 278 285 295 303 306 303 299 297 298 299 302 308 313 316 316
3 14 10 201 189 191 193 195 182 173 172 21 43 355 340 314 291 286 271 258 243 238 238 241 249 257 263 266 272 283 292 297 297 298 299 299 297 296 299 303 306 310 310
354 351 2 194 178 196 189 188 196 205 214 250 298 303 7 334 292 286 287 264 247 256 260 262 263 265 267 267 271 277 283 288 294 298 299 298 297 297 298 299 300 303 305
23 68 4 211 177 171 171 182 207 221 238 260 290 316 336 333 304 297 306 294 274 272 274 275 276 271 268 265 267 272 278 283 289 291 294 296 295 293 292 295 299 300 301
302 118 94 161 185 196 208 219 233 245 257 271 286 299 313 302 293 293 298 295 288 285 282 276 273 270 266 264 265 268 273 277 282 287 288 291 292 290 290 290 292 294 297
248 243 209 192 205 212 221 221 222 232 245 261 277 285 304 303 291 293 295 298 297 289 280 274 273 269 262 259 261 265 269 275 280 284 288 289 287 286 286 288 291 294 297
216 197 177 188 197 200 216 205 214 231 246 259 270 285 297 300 295 296 300 301 300 293 287 276 270 268 268 264 261 261 264 270 275 278 279 281 279 279 281 284 287 290 294
190 179 180 185 196 204 206 215 231 251 259 273 286 294 298 297 296 299 301 301 296 290 283 276 268 267 271 272 268 267 266 267 272 270 265 266 271 275 277 278 282 288 291
176 176 183 194 201 204 207 214 234 262 274 284 291 295 298 300 300 300 301 300 298 291 287 284 275 272 273 274 271 268 269 273 274 272 265 258 260 264 269 275 280 286 291
157 158 171 191 202 204 212 224 243 265 277 284 286 288 291 294 296 297 300 299 299 296 291 286 282 282 283 280 273 271 274 277 278 275 269 259 257 258 266 271 276 280 288
Height
1473 1475 1477 1480 1482 1484 1487 1489 1491 1494 1497 1499 1501 1503 1505 1506 1507 1509 1510 1511 1512 1513 1514 1515 1515 1515 1515 1515 1515 1514 1513 1512 1510 1508 1507 1506 1504 1502 1500 1498 1495 1493 1490
1469 1471 1473 1476 1478 1480 1483 1485 1488 1490 1493 1495 1496 1498 1500 1502 1503 1505 1506 1507 1508 1509 1510 1510 1511 1511 1511 1511 1510 1509 1509 1507 1506 1503 1502 1501 1499 1497 1495 1493 1490 1488 1486
1466 1467 1469 1472 1474 1477 1479 1482 1484 1486 1489 1491 1492 1494 1496 1498 1499 1501 1502 1503 1504 1505 1506 1506 1507 1507 1506 1506 1506 1505 1504 1503 1501 1499 1497 1497 1495 1493 1490 1488 1486 1484 1482
1463 1463 1465 1468 1471 1473 1475 1478 1481 1483 1485 1487 1489 1491 1492 1494 1495 1497 1498 1499 1500 1501 1502 1502 1502 1502 1502 1502 1501 1500 1500 1498 1497 1495 1494 1492 1490 1488 1486 1484 1481 1479 1477
1460 1460 1462 1465 1467 1469 1472 1475 1477 1479 1481 1483 1485 1487 1489 1490 1492 1493 1494 1495 1496 1497 1497 1498 1498 1498 1498 1498 1497 1496 1495 1494 1493 1492 1490 1488 1486 1484 1481 1479 1477 1474 1472
1457 1458 1460 1462 1464 1466 1468 1471 1473 1475 1477 1479 1481 1483 1485 1486 1488 1490 1491 1492 1492 1493 1493 1493 1494 1494 1493 1493 1493 1492 1491 1490 1489 1488 1485 1483 1481 1480 1477 1475 1472 1469 1466
1456 1457 1458 1459 1461 1463 1466 1468 1470 1472 1474 1476 1478 1480 1481 1483 1485 1486 1487 1488 1489 1489 1489 1489 1489 1489 1489 1489 1488 1487 1486 1486 1485 1484 1481 1479 1477 1475 1473 1470 1468 1466 1463
1455 1455 1456 1457 1459 1461 1464 1465 1467 1469 1471 1473 1475 1477 1478 1480 1481 1483 1484 1484 1485 1485 1486 1486 1486 1485 1485 1485 1484 1483 1482 1481 1480 1478 1477 1474 1473 1471 1469 1467 1464 1461 1459
1454 1454 1455 1456 1457 1460 1462 1463 1466 1467 1468 1470 1472 1474 1475 1477 1478 1480 1480 1481 1481 1482 1482 1483 1482 1482 1481 1481 1480 1479 1478 1477 1476 1474 1472 1470 1468 1466 1465 1463 1460 1457 1454
1454 1454 1454 1455 1456 1458 1461 1463 1464 1465 1466 1468 1470 1471 1473 1474 1476 1477 1477 1478 1478 1478 1479 1479 1479 1478 1478 1477 1476 1475 1474 1473 1471 1469 1468 1466 1464 1462 1461 1459 1457 1454 1451
1453 1453 1454 1455 1456 1458 1459 1461 1462 1463 1465 1466 1467 1469 1470 1472 1473 1474 1474 1475 1475 1475 1475 1475 1475 1475 1474 1473 1473 1471 1470 1469 1467 1465 1463 1462 1460 1458 1457 1455 1453 1451 1449
1452 1453 1453 1455 1456 1457 1459 1460 1461 1462 1463 1464 1465 1467 1468 1469 1470 1471 1471 1472 1472 1472 1471 1471 1471 1471 1470 1469 1468 1467 1466 1465 1463 1461 1459 1457 1456 1454 1453 1451 1449 1447 1445
1451 1452 1453 1454 1455 1456 1458 1459 1460 1461 1462 1462 1464 1465 1466 1467 1467 1468 1468 1468 1468 1468 1467 1467 1467 1466 1465 1465 1464 1463 1461 1460 1459 1457 1455 1454 1452 1450 1449 1447 1445 1443 1441
1451 1452 1452 1453 1454 1456 1457 1457 1458 1459 1460 1461 1461 1462 1463 1463 1464 1464 1464 1464 1464 1464 1463 1463 1462 1462 1461 1460 1459 1458 1457 1456 1455 1453 1452 1450 1448 1447 1445 1443 1441 1439 1437
1450 1451 1452 1453 1454 1454 1455 1456 1457 1458 1459 1459 1459 1460 1460 1460 1461 1461 1461 1460 1460 1460 1459 1459 1458 1457 1457 1456 1455 1454 1453 1452 1451 1449 1448 1446 1445 1443 1441 1440 1438 1435 1433
1450 1450 1451 1452 1452 1453 1454 1455 1455 1456 1456 1457 1457 1457 1457 1458 1457 1457 1457 1457 1457 1456 1456 1455 1454 1454 1453 1452 1451 1450 1449 1448 1447 1446 1444 1443 1441 1440 1438 1436 1434 1432 1430
1449 1449 1450 1450 1451 1452 1452 1452 1453 1454 1454 1454 1454 1454 1454 1454 1454 1454 1453 1453 1453 1453 1452 1451 1451 1450 1450 1449 1448 1447 1446 1445 1444 1442 1441 1440 1438 1437 1435 1433 1431 1429 1427
1448 1449 1449 1449 1449 1450 1450 1451 1451 1451 1451 1451 1451 1451 1451 1451 1451 1450 1450 1450 1449 1449 1448 1448 1447 1447 1446 1445 1445 1444 1442 1441 1440 1439 1438 1437 1435 1434 1432 1430 1428 1426 1425
1447 1447 1447 1448 1448 1448 1449 1449 1449 1449 1449 1449 1449 1449 1448 1448 1448 1448 1447 1447 1445 1445 1445 1444 1444 1443 1443 1442 1441 1440 1439 1438 1437 1436 1435 1433 1432 1431 1429 1427 1426 1424 1422
1445 1446 1446 1446 1446 1446 1446 1447 1447 1447 1447 1446 1446 1446 1445 1445 1445 1444 1444 1443 1442 1442 1441 1441 1440 1440 1439 1438 1438 1437 1436 1435 1434 1433 1432 1431 1429 1428 1426 1425 1423 1421 1419
1444 1444 1444 1444 1444 1444 1444 1444 1445 1445 1445 1444 1444 1444 1443 1443 1442 1441 1441 1440 1440 1439 1438 1437 1437 1436 1436 1435 1434 1433 1432 1432 1431 1430 1429 1428 1426 1425 1424 1422 1421 1419 1417
1442 1442 1442 1442 1442 1443 1442 1442 1443 1443 1442 1442 1441 1441 1441 1441 1440 1439 1438 1438 1437 1436 1435 1434 1433 1433 1432 1431 1431 1430 1429 1428 1428 1427 1426 1425 1424 1422 1421 1420 1418 1416 1415
1441 1441 1441 1441 1441 1441 1441 1441 1440 1440 1440 1440 1439 1439 1438 1438 1437 1437 1436 1435 1434 1433 1432 1431 1430 1429 1429 1428 1427 1427 1426 1425 1425 1424 1423 1422 1421 1420 1418 1417 1415 1414 1412
1439 1439 1439 1439 1439 1439 1439 1438 1438 1438 1438 1438 1437 1437 1436 1436 1435 1434 1433 1432 1431 1430 1429 1428 1427 1427 1426 1425 1425 1424 1423 1423 1422 1421 1420 1419 1418 1417 1416 1414 1413 1412 1410
1438 1438 1438 1438 1437 1437 1437 1437 1437 1437 1436 1436 1435 1435 1434 1434 1433 1432 1431 1430 1429 1428 1427 1426 1425 1424 1423 1423 1422 1421 1421 1420 1419 1418 1418 1417 1416 1414 1413 1412 1411 1409 1408
1436 1436 1436 1436 1436 1436 1435 1435 1435 1435 1435 1434 1434 1433 1432 1431 1430 1430 1429 1428 1427 1425 1424 1424 1423 1422 1421 1420 1419 1419 1418 1417 1416 1416 1415 1414 1413 1412 1411 1409 1408 1407 1406